Cosmos 371 Rocket - Orbit

View from above orbital plane
View from above orbital plane
View from above satellite
View from above satellite

Ground track
Ground track

The orbit data is extracted from the following two-line orbital elements,

1 04579U 70083B   13142.31864774  .00000423  00000-0  95815-4 0  6172
2 04579 074.0054 054.4000 0009810 067.3355 081.0531 14.59236827257792
Epoch (UTC): 22 May 2013 07:38:51
Eccentricity: 0.0009810
inclination: 74.0054°
perigee height: 689 km
apogee height: 702 km
right ascension of ascending node: 54.4000°
argument of perigee: 67.3355°
revolutions per day: 14.59236827
mean anomaly at epoch: 81.0531°
orbit number at epoch: 25779

The dashed part of the orbit path shows where the satellite is in the earth's shadow,  

Developed and maintained by Chris Peat, Heavens-Above GmbH. Please read the updated FAQ before sending e-mail. Imprint. DLR